GEO IK

Satellite information

Favourite Embed

Satellite Type and Status

PAYLOADIN ORBIT

Key statistics

Satellite GEO IK at a glance.

Uptime

11343

Days in orbit

Revolutions

≈ 12.4

Per day

Orbit

LEO

Low Earth Orbit

Inclination

73.6

Latest

Satellite identification and parameters

Extended collection of information and parameters for GEO IK.

Object identification

Identified? True

Debris? False

Object name: GEO IK

International designator: 1994-078A

Object number (NORAD): 23411

Object ID (CCSDS): 23411

Country: COMMONWEALTH OF INDEPENDENT STATES (CIS)

Current information (Y/N): Y

RCS size: LARGE

Orbital parameters

Period: 116.048 minutes

Inclination: 73.6152 deg

SMA: 7881.088 km

Apoapsis: 1526.574 km

Periapsis: 1479.333 km

RAAN: 47.3753 deg

Eccentricy: 0.00299709

Argument of periapsis: 251.4104 deg

Mean anomaly: 277.5969 deg

Mean motion: 12.40861934 rev/day

Mean motion (dot): 0.0000001 rev/day2

B* drag term: 0.00020121007 1/REarth

Two-line elements (TLE)

Creation date: Dec. 18, 2025, 8:02 p.m.

Reference frame: TEME

Reference center: EARTH

Epoch: Dec. 18, 2025, 2:56 p.m. UTC

TLE line 0: 0 GEO IK

TLE line 1: 1 23411U 94078A 25352.62227972 .00000010 00000-0 20121-3 0 9993

TLE line 2: 2 23411 73.6152 47.3753 0029971 251.4104 277.5969 12.40861934406666

Live tracking on map

Real-time ground track for satellite GEO IK.

In-orbit conjunctions

There are no conjunctions computed for GEO IK, at the moment. Check back to stay up to date, as we update our databases every day.

Go to all conjunctions

Associated space launch

A satellite for the GEO-IK geodetic system

GEO IK was lifted into orbit during the mission ‘Tsiklon-3 | Geo-IK 14’, on board a Tsiklon-3 space rocket.

The launch took place on Nov. 29, 1994, 2:54 a.m. from 32/2.

For more information about the launch, click the button.

Launch to space Tsiklon-3 | Geo-IK 14
Tsiklon-3 | Geo-IK 14

Agency: N/A

Status: Launch Successful

Launch date: Nov. 29, 1994, 2:54 a.m. UTC

Rocket: Tsiklon-3

Launch pad: 32/2

Location: Plesetsk Cosmodrome, Russian Federation

...

Latest news about this satellite

There are no fresh news available about this satellite. Check back as we update our databases every day.


Newsletter sign-up

Weekly statistics, charts and insights to help you stay on top of the space industry.